FENGYUN 1C DEB

Satellite information

Favourite Embed

Satellite Type and Status

DEBRISIN ORBIT

Key statistics

Satellite FENGYUN 1C DEB at a glance.

Uptime

9615

Days in orbit

Revolutions

≈ 14.0

Per day

Orbit

SSO

Sun Synchronous Orbit

Inclination

99.0

Latest

Satellite identification and parameters

Extended collection of information and parameters for FENGYUN 1C DEB.

Object identification

Identified? True

Debris? True

Object name: FENGYUN 1C DEB

International designator: 1999-025AAS

Object number (NORAD): 30331

Object ID (CCSDS): 30331

Country: PEOPLES REPUBLIC OF CHINA (PRC)

Current information (Y/N): Y

RCS size: SMALL

Orbital parameters

Period: 103.03 minutes

Inclination: 98.9709 deg

SMA: 7280.066 km

Apoapsis: 971.619 km

Periapsis: 832.243 km

RAAN: 284.0258 deg

Eccentricy: 0.00957248

Argument of periapsis: 282.1888 deg

Mean anomaly: 132.0955 deg

Mean motion: 13.97654351 rev/day

Mean motion (dot): 0.00000496 rev/day2

B* drag term: 0.00036861153 1/REarth

Two-line elements (TLE)

Creation date: Sept. 4, 2025, 10:13 a.m.

Reference frame: TEME

Reference center: EARTH

Epoch: Sept. 4, 2025, 1:53 a.m. UTC

TLE line 0: 0 FENGYUN 1C DEB

TLE line 1: 1 30331U 99025AAS 25247.07909697 .00000496 00000-0 36861-3 0 9998

TLE line 2: 2 30331 98.9709 284.0258 0095725 282.1888 132.0955 13.97654351947276

Live tracking on map

Real-time ground track for satellite FENGYUN 1C DEB.

In-orbit conjunctions

A list of the most updated potential collisions computed for object FENGYUN 1C DEB.

Target Orbit TCA Probability of collision Miss distance Type
FENGYUN 1C DEB SSO 2025-02-11 19:23:11 0.0001345539 103.0 (m) DEBRIS
COSMOS 1275 DEB LEO 2024-06-23 10:25:43 0.0001381644 90.0 (m) DEBRIS

Associated space launch

Chinese polar orbiting meteorological satellite

FENGYUN 1C DEB was lifted into orbit during the mission ‘Long March 4B | Feng Yun 1C’, on board a Long March 4B space rocket.

The launch took place on May 10, 1999, 1:33 a.m. from Launch Complex 7.

For more information about the launch, click the button.

Launch to space Long March 4B | Feng Yun 1C
Long March 4B | Feng Yun 1C

Agency: N/A

Status: Launch Successful

Launch date: May 10, 1999, 1:33 a.m. UTC

Rocket: Long March 4B

Launch pad: Launch Complex 7

Location: Taiyuan Satellite Launch Center, People's Republic of China

...

Latest news about this satellite

There are no fresh news available about this satellite. Check back as we update our databases every day.


Newsletter sign-up

Weekly statistics, charts and insights to help you stay on top of the space industry.